Price, UT

3:06 AM MDT on June 28, 2017 (GMT -0600)
Carbon County

Weather History for KPUC - October, 2013

Change the Weather History Date:

Tuesday, October 22, 2013

  Actual Average Record
Temperature  
Mean Temperature 49 °F -  
Max Temperature 64 °F 55 °F 77 °F (2003)
Min Temperature 35 °F 33 °F 18 °F (1996)
Degree Days  
Heating Degree Days 16    
Moisture  
Dew Point 22 °F    
Average Humidity 39    
Maximum Humidity 59    
Minimum Humidity 19    
Precipitation  
Precipitation 0.00 in - - ()
Sea Level Pressure  
Sea Level Pressure 30.24 in    
Wind  
Wind Speed 4 mph (NE)    
Max Wind Speed 10 mph    
Max Gust Speed -    
Visibility 10 miles    
Events      
Averages and records for this station are not official NWS values.
T = Trace of Precipitation, MM = Missing Value Source: NWS Daily Summary

Daily Weather History Graph

Daily Weather History Graph

Search for Another Location

Airport or City:

Trip Planner

Search our weather history database for the weather conditions in past years. The results will help you decide how hot, cold, wet, or windy it might be!

Date:

Astronomy

Oct. 22, 2013 Rise Set
Actual Time 7:40 AM MDT 6:33 PM MDT
Civil Twilight 7:13 AM MDT 7:00 PM MDT
Nautical Twilight 6:41 AM MDT 7:32 PM MDT
Astronomical Twilight 6:10 AM MDT 8:03 PM MDT
Moon 9:17 PM MDT (10/22) 11:11 AM MDT (10/22)
Length of Visible Light 11h 47m
Length of Day
10h 52m
Waning Gibbous, 86% of the Moon is Illuminated
Oct 22
Waning Gibbous
Oct 26
Last Quarter
Nov 3
New
Nov 9
First Quarter
Nov 17
Full

Hourly Weather History & Observations

Time (MDT) Temp. Windchill Dew Point Humidity Pressure Visibility Wind Dir Wind Speed Gust Speed Precip Events Conditions
12:53 AM 39.9 °F - 21.9 °F 49% 30.23 in 10.0 mi Calm Calm - N/A   Clear
1:53 AM 39.9 °F 36.7 °F 21.9 °F 49% 30.23 in 10.0 mi ENE 4.6 mph - N/A   Clear
2:53 AM 37.9 °F 32.1 °F 21.9 °F 53% 30.23 in 10.0 mi NNE 8.1 mph - N/A   Clear
3:53 AM 37.9 °F 33.5 °F 21.9 °F 53% 30.22 in 10.0 mi North 5.8 mph - N/A   Clear
4:53 AM 37.9 °F 32.1 °F 23.0 °F 55% 30.23 in 10.0 mi NE 8.1 mph - N/A   Clear
5:53 AM 35.1 °F 32.2 °F 21.9 °F 59% 30.25 in 10.0 mi NNE 3.5 mph - N/A   Clear
6:53 AM 36.0 °F 29.6 °F 21.9 °F 57% 30.28 in 10.0 mi NNE 8.1 mph - N/A   Clear
7:53 AM 35.1 °F 30.1 °F 21.9 °F 59% 30.32 in 8.0 mi North 5.8 mph - N/A   Clear
8:53 AM 45.0 °F - 25.0 °F 46% 30.31 in 10.0 mi Calm Calm - N/A   Clear
9:53 AM 46.9 °F - 25.0 °F 42% 30.32 in 10.0 mi Calm Calm - N/A   Clear
10:53 AM 52.0 °F - 24.1 °F 34% 30.29 in 10.0 mi Calm Calm - N/A   Clear
11:53 AM 55.9 °F - 21.9 °F 27% 30.27 in 10.0 mi ESE 5.8 mph - N/A   Clear
12:53 PM 57.9 °F - 21.9 °F 25% 30.26 in 10.0 mi SSE 6.9 mph - N/A   Clear
1:53 PM 60.1 °F - 19.0 °F 20% 30.23 in 10.0 mi SSW 3.5 mph - N/A   Clear
2:53 PM 62.1 °F - 19.0 °F 19% 30.21 in 10.0 mi ESE 5.8 mph - N/A   Clear
3:53 PM 62.1 °F - 19.0 °F 19% 30.20 in 10.0 mi Calm Calm - N/A   Clear
4:53 PM 63.0 °F - 19.9 °F 19% 30.18 in 10.0 mi Calm Calm - N/A   Clear
5:53 PM 62.1 °F - 21.0 °F 21% 30.19 in 10.0 mi SE 5.8 mph - N/A   Clear
6:53 PM 55.9 °F - 21.9 °F 27% 30.22 in 10.0 mi East 4.6 mph - N/A   Clear
7:53 PM 46.9 °F - 21.9 °F 37% 30.26 in 10.0 mi NNE 8.1 mph - N/A   Clear
8:53 PM 46.0 °F 41.4 °F 21.9 °F 39% 30.23 in 10.0 mi North 9.2 mph - N/A   Clear
9:53 PM 45.0 °F 40.1 °F 21.9 °F 40% 30.23 in 10.0 mi NNE 9.2 mph - N/A   Clear
10:53 PM 43.0 °F 37.7 °F 21.9 °F 43% 30.21 in 10.0 mi NNE 9.2 mph - N/A   Clear
11:53 PM 42.1 °F 36.1 °F 21.9 °F 45% 30.20 in 10.0 mi North 10.4 mph - N/A   Clear